Theta_e
334 335 340 342 344 338 337 334 336 336 338 340 340 342 343 344 345 351 339 341 341 343 339 325 324 324 324 324 325 326 328 330 332 333 333 332 331 331 336 336 333 332 333 334 334 333 332 331 328
336 338 339 340 337 337 337 336 338 339 338 340 341 343 342 345 339 340 340 340 340 344 342 335 325 324 324 325 326 328 330 332 332 332 331 332 332 335 333 336 336 336 332 333 335 334 333 332 334
329 337 338 339 338 337 338 336 338 339 339 339 340 340 343 341 336 337 337 338 340 342 341 335 324 324 324 326 327 329 331 332 331 332 336 336 334 333 329 330 330 327 325 326 328 330 325 326 329
335 335 337 336 337 338 337 337 337 337 337 337 338 342 342 341 343 340 338 339 340 341 343 324 323 324 325 326 328 330 331 331 331 335 334 334 333 327 324 321 318 318 317 316 316 319 324 324 321
332 334 339 337 337 337 338 337 336 336 336 336 337 341 344 344 345 342 341 340 340 340 345 324 323 324 325 327 329 331 331 333 335 333 332 330 322 321 318 318 319 320 319 319 317 315 317 320 320
333 335 337 338 336 337 338 337 336 335 335 336 336 338 341 341 341 341 340 341 340 340 342 333 324 325 326 328 329 332 331 335 330 325 326 322 320 321 321 321 321 321 321 320 319 318 316 315 315
333 335 335 336 335 338 337 338 336 335 333 335 336 336 343 343 343 342 339 339 339 340 341 342 331 326 327 329 331 332 334 326 321 320 321 322 322 322 323 323 326 322 322 322 321 321 321 320 318
331 335 335 335 336 337 337 337 336 335 332 336 338 338 340 339 340 339 338 339 339 337 338 340 341 340 340 336 332 332 333 322 324 323 322 322 329 331 330 331 328 324 324 324 325 324 323 323 322
331 334 334 334 336 336 335 337 338 335 333 334 335 337 338 338 339 339 337 337 337 337 338 338 339 339 340 342 342 334 334 329 326 330 330 327 334 332 331 329 329 329 329 328 325 326 325 324 324
331 333 333 333 334 333 335 338 335 338 335 334 335 338 340 338 338 338 339 338 338 338 338 339 339 340 340 339 342 341 343 341 344 340 339 334 332 332 331 331 330 330 329 326 328 326 326 326 326
331 331 331 331 331 333 334 335 335 337 337 335 335 336 341 341 340 339 339 339 339 340 341 342 343 343 342 341 343 341 339 339 341 343 335 334 333 334 333 330 330 329 326 323 323 324 325 325 325
330 329 330 330 331 331 334 335 334 337 336 335 334 335 340 341 342 342 340 340 341 343 344 344 343 344 342 344 345 343 341 338 336 340 335 333 334 333 333 331 330 322 321 320 319 319 320 322 325
330 329 329 329 331 332 333 334 334 335 335 335 336 337 338 341 343 344 344 344 344 345 345 345 346 347 347 346 346 344 340 337 338 336 334 334 334 335 330 328 322 322 321 320 318 318 319 320 321
329 329 329 329 332 332 333 334 334 334 334 336 338 339 338 340 342 344 346 346 347 347 346 347 348 349 349 347 345 344 343 338 336 333 333 334 330 329 329 322 323 322 321 320 319 319 320 320 320
328 329 330 330 331 333 332 334 336 333 335 336 338 340 340 338 342 344 345 346 346 346 347 349 350 349 341 343 339 339 336 333 333 331 330 330 330 330 322 322 322 322 322 320 319 319 318 318 318
330 331 330 331 331 332 330 334 335 334 334 335 337 340 341 340 341 344 347 344 344 344 343 338 343 342 340 339 337 335 334 333 332 331 327 333 330 325 324 323 322 322 322 319 319 318 318 318 317
332 332 332 332 330 332 332 332 334 332 332 333 335 340 341 343 343 344 345 343 343 345 346 345 342 341 340 337 335 336 334 328 329 333 335 333 329 325 324 324 323 322 322 320 319 318 317 317 317
331 331 331 331 331 331 331 332 332 332 333 333 335 340 342 343 345 346 344 343 342 344 345 345 344 343 336 337 335 334 335 336 337 337 335 331 327 325 324 324 323 322 320 319 318 317 317 316 317
330 330 330 331 331 330 331 331 331 333 333 333 338 341 343 342 344 346 346 343 343 343 344 344 343 343 339 339 338 336 336 338 336 337 333 329 327 325 325 324 322 320 319 318 317 316 317 315 315
330 330 331 331 332 331 331 331 332 332 335 336 338 340 342 343 343 345 346 344 344 344 344 343 342 343 341 339 339 340 338 336 335 332 329 326 326 326 324 323 320 319 318 317 315 316 316 314 314
331 331 330 330 330 330 333 332 333 334 336 337 338 340 341 340 338 339 341 344 344 344 344 343 343 342 339 340 340 339 338 336 333 330 329 326 325 324 323 321 320 318 316 314 315 315 314 314 313
330 331 330 330 330 331 331 330 335 333 334 335 336 335 334 333 333 334 336 339 341 342 342 342 342 342 339 337 339 338 336 334 330 326 323 324 324 322 321 319 318 315 315 313 314 314 313 313 313
330 329 330 330 331 332 332 328 336 334 334 334 333 332 332 332 332 332 335 336 335 337 337 340 342 340 331 329 330 336 333 327 324 323 323 321 321 320 318 316 315 315 313 314 313 312 312 311 312
330 331 332 332 332 333 332 328 335 334 332 333 332 331 331 330 331 332 333 333 333 333 333 337 341 342 336 334 334 325 320 319 321 324 322 322 321 319 317 315 315 313 314 313 312 313 311 311 310
332 332 332 333 331 329 330 327 334 331 330 329 328 328 329 330 331 331 332 332 333 331 332 334 337 339 340 336 332 330 323 321 323 323 322 322 320 318 316 316 314 314 312 312 311 311 311 311 310
333 333 332 332 332 329 330 331 332 329 328 328 328 328 328 328 329 331 331 332 330 330 333 335 332 333 333 331 329 328 327 324 321 322 322 321 319 317 315 315 314 313 312 311 311 311 309 309 309
334 335 332 337 335 332 331 331 331 330 329 329 328 328 328 328 331 331 331 332 331 331 333 333 328 329 329 328 328 327 326 323 323 322 321 319 317 316 314 314 313 312 311 311 310 309 309 308 308
333 331 333 331 333 333 330 330 330 330 330 329 328 328 329 330 330 331 331 331 332 331 330 329 327 326 326 327 326 325 322 320 321 321 320 317 316 314 314 313 311 312 311 309 309 309 308 308 309
334 334 333 332 333 332 331 330 331 330 330 330 329 329 328 329 330 329 329 329 331 328 327 326 326 326 325 325 325 322 321 319 321 320 318 315 315 313 314 311 311 311 310 310 309 308 308 308 309
330 332 331 333 331 330 332 331 331 331 330 330 329 330 330 329 328 327 327 328 327 327 327 327 327 326 325 324 322 321 319 322 320 317 315 313 312 312 311 311 311 310 310 309 308 308 307 309 309
Wind_Speed
7 5 5 15 7 9 15 18 12 9 16 12 9 13 8 17 14 4 19 14 15 13 15 13 12 10 9 8 7 7 6 6 6 7 7 8 8 9 10 11 12 13 13 13 13 13 12 12 11
6 9 11 14 2 13 13 15 17 15 15 11 7 2 12 16 15 18 15 12 15 13 13 13 12 11 9 8 7 6 5 5 5 6 7 8 8 9 10 10 11 12 13 13 13 13 13 13 13
8 11 16 8 9 14 14 16 14 13 9 6 13 13 14 12 10 10 13 14 15 13 12 13 12 11 10 8 7 5 4 3 4 5 6 7 8 8 10 10 11 12 14 14 14 14 14 14 13
9 14 12 5 13 13 18 11 12 15 12 13 5 11 13 12 6 10 15 14 13 13 12 12 12 11 9 7 5 4 3 2 3 4 4 5 6 7 8 9 10 12 13 15 15 14 13 13 13
13 17 4 6 18 8 16 12 11 13 8 17 12 16 14 8 10 12 13 13 12 11 11 11 11 10 8 6 4 3 2 2 2 2 3 5 6 7 8 9 10 12 14 16 16 16 15 14 14
18 5 3 7 15 9 13 10 10 16 14 6 15 17 14 10 10 10 11 11 11 10 8 10 10 9 7 5 4 3 1 1 2 2 3 3 5 6 8 8 10 14 16 17 17 17 18 18 18
16 3 5 15 7 11 14 5 12 12 14 14 3 17 13 10 9 10 11 10 10 9 10 7 7 7 6 4 3 3 1 1 3 2 2 2 4 8 10 11 12 16 18 19 19 19 21 21 20
13 11 6 6 17 12 14 9 11 9 17 10 2 15 13 13 11 10 10 10 9 9 8 7 8 4 5 3 3 3 2 2 0 1 2 3 7 11 13 11 16 18 20 20 20 21 19 20 25
12 13 4 1 21 11 10 12 9 7 15 7 9 13 16 14 13 11 10 9 8 8 8 7 5 6 4 7 8 5 3 2 3 5 5 5 6 9 8 14 19 20 20 25 21 18 21 21 20
14 8 8 10 7 7 10 20 12 6 13 14 11 10 14 15 13 11 9 8 8 7 7 6 6 6 5 5 6 3 7 5 2 4 6 5 9 11 14 13 20 17 23 24 20 22 24 22 20
6 6 8 6 9 8 10 4 9 7 28 15 14 15 14 14 12 11 8 8 6 7 7 6 6 7 6 5 7 10 7 11 7 6 7 7 9 8 12 13 13 17 19 20 21 20 20 21 21
10 4 3 10 4 5 2 4 4 15 28 6 8 11 14 14 12 10 8 7 6 5 5 3 5 6 7 7 11 7 11 10 7 5 9 8 10 10 10 12 15 16 19 20 20 20 21 22 21
9 5 3 3 4 7 1 5 3 3 7 5 7 6 14 12 11 9 7 4 5 4 5 6 7 8 8 9 9 11 12 11 7 9 7 7 7 10 10 12 17 18 18 19 21 21 21 21 21
3 3 1 3 3 4 12 9 6 5 8 10 4 10 10 13 11 10 8 6 5 4 4 7 8 9 7 11 12 10 9 8 8 7 8 8 14 16 11 15 16 17 18 20 20 20 21 21 21
9 11 9 8 5 5 9 15 9 5 7 5 8 6 9 12 13 11 9 7 5 5 4 7 7 8 10 7 5 3 6 6 7 7 14 17 13 14 20 14 17 18 17 21 21 20 21 22 22
14 10 7 6 5 6 10 5 19 21 4 7 10 6 8 11 12 12 10 7 5 5 5 5 4 5 5 4 4 4 7 6 8 13 16 14 8 12 15 16 18 19 20 20 20 21 21 22 23
6 11 5 10 3 5 7 6 12 3 5 9 9 11 10 10 11 11 10 8 5 5 5 3 4 4 5 7 5 6 11 13 13 13 12 11 11 13 16 17 19 20 21 21 21 20 22 23 23
2 9 2 3 8 7 14 9 10 8 7 10 9 3 9 13 11 11 10 8 6 5 5 4 3 5 8 5 8 7 7 8 7 12 12 12 12 14 16 18 20 19 22 23 22 25 22 20 20
10 8 8 5 5 10 17 8 14 8 10 5 6 7 8 9 10 10 10 8 6 4 4 4 4 6 5 5 6 10 10 13 13 14 12 12 13 15 18 19 20 22 23 24 26 25 21 21 19
9 11 11 11 4 9 16 10 4 3 4 5 2 6 10 9 8 9 9 8 6 4 4 5 5 6 6 6 7 9 10 11 13 13 12 20 19 17 19 20 21 22 25 24 23 20 22 24 20
7 8 11 14 14 15 9 19 8 9 8 4 3 3 5 8 9 9 8 7 6 6 5 4 5 5 6 7 7 11 12 13 12 10 15 15 18 18 18 19 20 21 23 22 21 21 20 21 21
5 9 10 12 12 9 3 8 10 4 9 7 6 10 11 7 5 3 3 4 6 6 6 5 5 5 5 8 6 9 11 10 11 15 16 19 18 19 17 19 20 20 18 21 17 15 17 15 17
10 11 9 11 12 9 2 9 4 4 7 7 4 2 1 2 4 0 3 3 3 2 4 5 5 4 6 9 8 7 8 11 13 14 17 20 17 17 20 19 18 19 21 19 21 21 20 18 18
8 14 13 10 11 6 6 6 6 6 12 4 3 4 5 8 2 2 3 4 5 2 4 4 4 4 6 7 8 10 12 15 15 15 19 17 18 19 19 18 16 22 20 21 23 21 21 20 20
10 12 6 5 3 3 6 6 13 8 7 6 10 11 10 10 4 4 4 3 1 3 5 5 5 4 6 6 7 9 12 14 14 16 16 19 20 20 18 17 22 19 22 23 23 21 21 20 22
10 8 7 9 9 11 9 3 7 5 3 5 8 9 10 16 9 4 4 2 7 5 5 5 6 8 9 9 9 8 11 10 14 15 18 19 19 19 18 21 19 21 21 23 20 19 20 20 20
7 3 5 8 11 10 3 3 6 4 2 2 11 10 14 13 5 9 4 3 7 7 6 7 9 10 11 10 9 9 9 17 17 17 18 19 21 19 18 20 20 22 22 20 19 18 19 18 17
16 8 2 6 5 11 14 7 2 9 14 16 16 19 16 12 13 4 6 2 6 8 9 8 10 12 12 12 11 11 15 19 16 17 18 20 19 21 18 19 22 22 21 18 16 17 16 16 13
9 4 5 4 2 9 10 12 12 10 12 12 16 18 16 9 7 5 4 7 6 10 12 15 15 16 16 15 14 19 16 18 18 19 20 19 19 18 19 21 23 23 17 16 16 15 14 13 13
7 8 5 6 13 10 10 4 12 12 14 11 14 10 13 11 9 10 8 10 10 11 14 17 17 17 18 15 18 17 16 16 19 20 19 20 19 20 19 23 24 16 14 14 14 13 10 11 12
Wind_Direction
3 307 299 276 234 83 81 75 83 78 75 65 71 15 33 21 25 115 140 136 148 153 156 154 148 144 139 132 124 113 107 94 75 62 55 53 52 50 43 40 36 33 28 21 16 10 3 355 345
309 284 282 278 20 84 71 76 62 67 82 92 104 232 45 64 71 111 138 153 149 153 154 161 155 151 151 141 137 132 119 92 76 66 60 57 53 50 41 41 37 32 23 17 11 7 4 0 352
313 277 274 251 74 74 79 84 82 89 82 73 102 55 51 93 101 102 133 139 152 154 150 180 162 163 155 155 151 140 112 89 75 69 65 66 55 52 45 41 37 29 23 19 12 4 357 352 350
299 257 262 96 74 61 101 86 100 103 99 66 345 86 82 80 93 131 136 142 149 152 165 171 169 169 163 161 159 150 122 95 85 76 65 51 56 52 49 47 42 33 22 14 6 360 357 351 347
271 274 275 115 100 96 87 80 96 98 62 67 50 85 92 91 111 128 141 146 150 152 166 177 172 173 171 173 173 176 150 118 93 65 56 64 61 58 49 44 33 24 15 10 3 356 347 341 334
291 274 91 171 108 118 86 93 80 82 78 118 81 76 78 111 119 134 144 149 155 154 159 187 179 179 181 187 197 212 179 80 29 60 84 79 57 41 26 13 9 4 0 357 353 351 343 335 328
296 329 10 108 125 104 90 83 70 88 77 69 127 91 111 131 129 136 142 150 154 164 162 164 178 187 193 202 219 229 199 31 48 96 107 84 22 3 357 353 351 345 343 344 341 336 336 333 325
287 282 169 69 125 119 109 102 96 79 75 90 312 111 117 124 137 137 145 153 156 165 172 176 179 200 202 235 254 241 229 186 332 29 21 346 356 356 349 343 328 334 334 333 329 327 321 318 319
267 276 249 110 58 116 131 112 105 91 121 105 79 66 121 136 139 139 144 153 160 166 176 178 182 199 198 190 285 256 266 237 303 322 333 339 356 317 323 310 329 339 339 334 331 325 321 320 319
272 278 51 29 99 74 123 110 134 195 145 139 134 109 130 145 148 150 152 155 158 169 179 185 190 202 205 221 251 246 262 272 289 278 285 327 303 315 326 329 331 341 335 335 332 329 319 311 305
248 359 62 110 17 340 110 95 122 117 343 144 154 146 153 157 159 158 166 152 171 153 176 192 203 203 206 243 249 244 223 234 253 241 269 288 306 316 324 327 324 329 328 322 317 317 309 300 295
252 37 1 72 114 255 280 104 128 132 197 57 114 141 160 169 172 168 191 160 167 164 181 223 224 227 223 235 264 270 265 246 225 223 286 314 318 309 314 321 324 324 324 321 317 312 302 299 294
248 115 218 145 223 265 344 238 258 360 109 133 106 150 170 179 174 180 187 164 184 209 219 247 231 243 236 254 260 272 281 290 265 285 282 300 309 288 314 314 321 319 322 324 318 311 304 301 296
111 266 240 224 189 200 274 233 185 333 140 161 179 184 194 176 180 174 183 194 200 223 248 250 250 248 254 263 255 262 256 260 270 272 262 279 308 304 318 320 313 320 318 317 315 309 304 302 297
225 241 190 202 186 257 269 273 339 234 170 193 169 234 193 188 179 182 179 183 205 226 221 237 242 238 267 254 268 257 253 261 262 268 276 306 307 294 305 321 322 317 309 321 313 307 304 301 296
227 267 193 73 197 160 264 193 205 264 232 189 241 159 200 187 189 194 191 186 200 207 226 237 230 245 267 228 247 252 267 257 253 261 304 304 294 302 312 316 320 309 317 317 310 310 307 302 297
261 178 174 130 68 346 241 320 196 32 317 277 260 179 187 190 192 192 201 205 208 215 221 213 218 224 242 265 234 256 257 272 282 287 307 281 286 299 303 315 317 308 316 315 311 306 305 307 302
242 34 175 4 48 292 276 249 300 64 323 286 248 174 181 201 194 205 199 204 208 206 211 220 241 233 259 242 274 263 283 268 280 299 296 278 295 303 305 310 317 311 312 309 304 305 304 301 302
331 312 302 88 100 285 301 298 284 21 300 269 254 221 198 199 169 190 197 201 202 203 223 218 252 246 263 263 278 283 286 306 297 308 295 285 298 300 311 313 306 309 307 301 306 305 297 301 302
279 296 28 305 88 297 288 295 65 25 5 335 280 180 186 177 177 192 196 200 213 225 232 243 249 252 263 255 278 275 283 294 297 292 285 322 311 308 309 301 306 306 305 304 304 300 298 293 302
275 349 351 322 317 266 279 272 139 130 114 107 174 115 158 183 180 183 205 225 232 246 253 258 258 243 259 249 274 298 315 314 305 314 307 301 293 305 301 306 305 303 303 303 298 292 296 295 293
10 6 322 311 306 319 323 282 121 99 111 116 159 176 163 160 194 181 266 236 244 258 252 250 244 240 301 292 276 279 296 310 300 310 306 301 306 300 305 306 304 308 303 304 303 307 299 298 301
3 327 301 292 273 296 104 310 84 222 142 119 135 146 238 246 186 40 183 208 239 245 255 246 221 242 271 284 307 284 293 296 307 306 301 307 320 304 306 304 305 301 308 301 302 298 292 292 291
289 266 265 261 246 193 3 332 76 44 11 34 157 239 247 269 193 225 191 240 222 281 297 246 239 249 283 304 296 304 305 310 311 312 316 313 310 312 305 305 301 307 303 302 307 295 292 293 295
326 335 327 264 251 24 58 279 72 49 28 339 337 324 296 265 271 311 212 161 340 297 294 267 246 277 269 269 270 278 295 307 324 310 311 306 313 309 307 305 306 302 300 309 305 298 297 299 294
23 314 27 317 342 319 50 7 116 84 27 319 312 305 296 289 303 321 330 282 306 326 278 258 281 297 286 280 272 275 287 299 315 305 310 315 314 308 305 310 304 299 305 311 305 305 304 302 298
229 28 358 301 268 285 147 34 77 202 6 354 324 294 292 296 310 292 290 270 302 309 282 279 296 294 283 276 278 294 316 320 312 316 314 312 309 303 308 306 303 307 311 313 308 306 304 305 300
312 12 316 326 320 332 340 348 350 11 10 351 331 327 335 355 304 308 305 282 309 304 294 276 309 301 284 271 276 272 292 306 301 315 316 314 309 302 311 305 311 307 313 312 311 308 307 308 305
216 154 275 310 347 319 317 326 44 4 351 350 338 336 323 342 356 9 0 336 316 315 317 315 308 307 300 293 286 294 312 312 319 318 314 312 302 307 304 308 312 318 313 315 312 312 308 308 307
299 340 343 342 343 320 281 336 27 8 8 18 342 11 21 357 347 333 336 333 316 322 323 323 322 313 313 289 291 304 321 323 313 315 318 301 304 304 310 311 316 307 316 315 321 315 309 305 317